Wetterdaten: aktuell Donnerstag, 25.04.2019 02:42
Datum Zeit Temp. 2m Temp. 5cm Temp. -10cm Temp. 2m alt Feuchte A. Luftdruck Regen Wind Richtung Richtung Taupunkt Windchill Windben
25.04.2019 02:42 15,7 C 14,7 C 13,0 C 13,3 C 53 % 1011,9 hPa 0,0 l/m 2,4 km/h (1 Bft) N 360 6,1 C 15,7 C 3,7 km/h (1 Bft)
25.04.2019 02:40 15,9 C 14,5 C 13,0 C 13,3 C 53 % 1011,9 hPa 0,0 l/m 2,3 km/h (1 Bft) N-NO 22 6,3 C 15,9 C 0,0 km/h (0 Bft)
25.04.2019 02:38 16,0 C 14,7 C 13,1 C 13,3 C 52 % 1011,9 hPa 0,0 l/m 2,4 km/h (1 Bft) NO 45 6,2 C 16,0 C 4,1 km/h (1 Bft)
25.04.2019 02:36 16,2 C 15,0 C 13,1 C 13,3 C 52 % 1011,9 hPa 0,0 l/m 2,4 km/h (1 Bft) O-NO 67 6,3 C 16,2 C 5,2 km/h (1 Bft)
25.04.2019 02:34 16,3 C 15,1 C 13,1 C 13,3 C 52 % 1011,9 hPa 0,0 l/m 2,3 km/h (1 Bft) N-NO 22 6,4 C 16,3 C 2,7 km/h (1 Bft)
25.04.2019 02:32 16,4 C 15,4 C 13,1 C 13,3 C 51 % 1011,9 hPa 0,0 l/m 2,4 km/h (1 Bft) O-NO 67 6,2 C 16,4 C 3,9 km/h (1 Bft)
25.04.2019 02:30 16,6 C 15,3 C 13,1 C 13,3 C 51 % 1011,9 hPa 0,0 l/m 2,7 km/h (1 Bft) NW 315 6,4 C 16,6 C 0,0 km/h (0 Bft)
25.04.2019 02:28 16,8 C 15,4 C 13,1 C 13,3 C 51 % 1011,9 hPa 0,0 l/m 2,7 km/h (1 Bft) N-NO 22 6,6 C 16,8 C 2,3 km/h (1 Bft)
25.04.2019 02:26 16,9 C 15,3 C 13,1 C 13,3 C 51 % 1011,8 hPa 0,0 l/m 3,1 km/h (1 Bft) SO 135 6,7 C 16,9 C 7,3 km/h (2 Bft)
25.04.2019 02:24 17,2 C 15,7 C 13,1 C 13,3 C 50 % 1011,8 hPa 0,0 l/m 2,9 km/h (1 Bft) NO 45 6,7 C 17,2 C 2,3 km/h (1 Bft)
25.04.2019 02:22 17,2 C 15,7 C 13,1 C 13,3 C 50 % 1011,8 hPa 0,0 l/m 3,4 km/h (1 Bft) O-SO 112 6,7 C 17,2 C 9,8 km/h (2 Bft)
25.04.2019 02:20 17,5 C 15,9 C 13,0 C 13,3 C 50 % 1011,8 hPa 0,0 l/m 3,5 km/h (1 Bft) O-NO 67 7,0 C 17,5 C 7,7 km/h (2 Bft)
25.04.2019 02:18 17,6 C 16,3 C 13,0 C 13,3 C 49 % 1011,8 hPa 0,0 l/m 3,7 km/h (1 Bft) N-NO 22 6,8 C 17,6 C 2,5 km/h (1 Bft)
25.04.2019 02:16 17,8 C 16,7 C 13,0 C 13,3 C 49 % 1011,8 hPa 0,0 l/m 3,9 km/h (1 Bft) W-NW 292 6,9 C 17,8 C 5,8 km/h (2 Bft)
25.04.2019 02:14 17,8 C 17,5 C 13,0 C 13,3 C 49 % 1011,8 hPa 0,0 l/m 4,8 km/h (1 Bft) O-SO 112 6,9 C 17,8 C 4,2 km/h (1 Bft)
25.04.2019 02:12 17,8 C 17,5 C 13,0 C 13,3 C 48 % 1011,8 hPa 0,0 l/m 4,8 km/h (1 Bft) S-SW 202 6,6 C 17,8 C 14,5 km/h (3 Bft)
25.04.2019 02:10 17,9 C 17,6 C 13,0 C 13,3 C 48 % 1011,8 hPa 0,0 l/m 4,3 km/h (1 Bft) S-SO 157 6,7 C 17,9 C 4,6 km/h (1 Bft)
25.04.2019 02:08 17,9 C 17,7 C 13,0 C 13,3 C 48 % 1011,8 hPa 0,0 l/m 4,5 km/h (1 Bft) SW 225 6,7 C 17,9 C 7,3 km/h (2 Bft)
25.04.2019 02:06 17,9 C 17,7 C 13,0 C 13,3 C 48 % 1011,8 hPa 0,0 l/m 4,8 km/h (1 Bft) S-SO 157 6,7 C 17,9 C 6,6 km/h (2 Bft)
25.04.2019 02:04 17,9 C 17,6 C 13,1 C 13,3 C 48 % 1011,8 hPa 0,0 l/m 5,1 km/h (1 Bft) SW 225 6,7 C 17,9 C 11,6 km/h (2 Bft)
25.04.2019 02:02 18,0 C 17,6 C 13,1 C 13,3 C 48 % 1011,8 hPa 0,0 l/m 5,5 km/h (1 Bft) S-SO 157 6,8 C 18,0 C 12,2 km/h (2 Bft)
25.04.2019 02:00 18,0 C 17,5 C 13,1 C 13,3 C 48 % 1011,8 hPa 0,0 l/m 5,5 km/h (1 Bft) S 180 6,8 C 18,0 C 0,0 km/h (0 Bft)
25.04.2019 01:58 18,0 C 17,7 C 13,1 C 13,3 C 48 % 1011,8 hPa 0,0 l/m 6,1 km/h (2 Bft) W-SW 247 6,8 C 18,0 C 7,7 km/h (2 Bft)
25.04.2019 01:56 18,0 C 17,7 C 13,1 C 13,3 C 48 % 1011,8 hPa 0,0 l/m 6,4 km/h (2 Bft) N-NW 337 6,8 C 18,0 C 10,2 km/h (2 Bft)
25.04.2019 01:54 18,0 C 17,7 C 13,1 C 13,3 C 48 % 1011,8 hPa 0,0 l/m 6,9 km/h (2 Bft) S-SW 202 6,8 C 17,8 C 6,4 km/h (2 Bft)
25.04.2019 01:52 18,0 C 17,6 C 13,1 C 13,3 C 48 % 1011,8 hPa 0,0 l/m 6,9 km/h (2 Bft) W-SW 247 6,8 C 17,8 C 16,0 km/h (3 Bft)
25.04.2019 01:50 18,1 C 17,7 C 13,1 C 13,3 C 48 % 1011,8 hPa 0,0 l/m 7,2 km/h (2 Bft) SO 135 6,9 C 17,7 C 12,6 km/h (3 Bft)
25.04.2019 01:48 18,1 C 17,9 C 13,1 C 13,3 C 48 % 1011,8 hPa 0,0 l/m 7,9 km/h (2 Bft) S 180 6,9 C 17,4 C 13,9 km/h (3 Bft)
25.04.2019 01:46 18,1 C 18,1 C 13,1 C 13,3 C 47 % 1011,9 hPa 0,0 l/m 8,0 km/h (2 Bft) S-SW 202 6,6 C 17,4 C 8,3 km/h (2 Bft)
25.04.2019 01:44 18,1 C 18,0 C 13,1 C 13,3 C 48 % 1011,9 hPa 0,0 l/m 8,7 km/h (2 Bft) W-NW 292 6,9 C 17,1 C 18,5 km/h (3 Bft)
25.04.2019 01:42 18,1 C 18,0 C 13,1 C 13,3 C 47 % 1011,9 hPa 0,0 l/m 8,7 km/h (2 Bft) S 180 6,6 C 17,1 C 12,4 km/h (3 Bft)
25.04.2019 01:40 18,1 C 18,0 C 13,1 C 13,3 C 48 % 1011,9 hPa 0,0 l/m 8,4 km/h (2 Bft) W-SW 247 6,9 C 17,2 C 7,5 km/h (2 Bft)
25.04.2019 01:38 18,0 C 18,0 C 13,1 C 13,3 C 48 % 1011,9 hPa 0,0 l/m 7,6 km/h (2 Bft) SW 225 6,8 C 17,4 C 17,6 km/h (3 Bft)
25.04.2019 01:36 18,0 C 18,0 C 13,1 C 13,3 C 48 % 1011,9 hPa 0,0 l/m 6,6 km/h (2 Bft) N 360 6,8 C 17,9 C 8,5 km/h (2 Bft)
25.04.2019 01:34 18,0 C 17,9 C 13,1 C 13,3 C 48 % 1011,9 hPa 0,0 l/m 6,0 km/h (2 Bft) SW 225 6,8 C 18,0 C 12,4 km/h (3 Bft)
25.04.2019 01:32 18,0 C 17,9 C 13,1 C 13,3 C 48 % 1011,9 hPa 0,0 l/m 4,5 km/h (1 Bft) W-SW 247 6,8 C 18,0 C 6,4 km/h (2 Bft)
25.04.2019 01:30 18,0 C 17,6 C 13,1 C 13,3 C 48 % 1011,9 hPa 0,0 l/m 4,3 km/h (1 Bft) S-SO 157 6,8 C 18,0 C 6,8 km/h (2 Bft)
25.04.2019 01:29 18,0 C 17,6 C 13,1 C 13,3 C 48 % 1011,9 hPa 0,0 l/m 4,3 km/h (1 Bft) S-SO 157 6,8 C 18,0 C 6,8 km/h (2 Bft)
25.04.2019 01:26 18,1 C 17,8 C 13,1 C 13,3 C 48 % 1011,7 hPa 0,0 l/m 4,0 km/h (1 Bft) W 270 6,9 C 18,1 C 5,8 km/h (2 Bft)
25.04.2019 01:24 18,1 C 17,4 C 13,1 C 13,3 C 48 % 1011,7 hPa 0,0 l/m 3,9 km/h (1 Bft) SW 225 6,9 C 18,1 C 8,9 km/h (2 Bft)
25.04.2019 01:22 18,1 C 17,8 C 13,1 C 13,3 C 48 % 1011,7 hPa 0,0 l/m 4,2 km/h (1 Bft) S 180 6,9 C 18,1 C 7,7 km/h (2 Bft)
25.04.2019 01:20 18,1 C 17,9 C 13,1 C 13,3 C 48 % 1011,7 hPa 0,0 l/m 4,2 km/h (1 Bft) S-SO 157 6,9 C 18,1 C 8,9 km/h (2 Bft)
25.04.2019 01:18 18,1 C 17,7 C 13,1 C 13,3 C 48 % 1011,7 hPa 0,0 l/m 4,3 km/h (1 Bft) N-NW 337 6,9 C 18,1 C 13,9 km/h (3 Bft)
25.04.2019 01:16 18,2 C 17,6 C 13,2 C 13,3 C 48 % 1011,7 hPa 0,0 l/m 4,7 km/h (1 Bft) W-SW 247 7,0 C 18,2 C 7,7 km/h (2 Bft)
25.04.2019 01:14 18,2 C 17,8 C 13,2 C 13,3 C 48 % 1011,7 hPa 0,0 l/m 4,8 km/h (1 Bft) NO 45 7,0 C 18,2 C 6,8 km/h (2 Bft)
25.04.2019 01:12 18,2 C 17,8 C 13,2 C 13,3 C 48 % 1011,7 hPa 0,0 l/m 5,5 km/h (1 Bft) S-SO 157 7,0 C 18,2 C 3,9 km/h (1 Bft)
25.04.2019 01:10 18,3 C 17,8 C 13,2 C 13,3 C 48 % 1011,7 hPa 0,0 l/m 5,6 km/h (1 Bft) W 270 7,1 C 18,3 C 10,8 km/h (2 Bft)
25.04.2019 01:08 18,3 C 17,9 C 13,2 C 13,3 C 47 % 1011,7 hPa 0,0 l/m 5,6 km/h (1 Bft) SW 225 6,8 C 18,3 C 8,7 km/h (2 Bft)
25.04.2019 01:06 18,4 C 17,9 C 13,2 C 13,3 C 47 % 1011,6 hPa 0,0 l/m 6,3 km/h (2 Bft) SW 225 6,9 C 18,4 C 6,4 km/h (2 Bft)
25.04.2019 01:04 18,4 C 18,2 C 13,2 C 13,3 C 47 % 1011,6 hPa 0,0 l/m 6,4 km/h (2 Bft) S 180 6,9 C 18,4 C 7,1 km/h (2 Bft)
25.04.2019 01:02 18,5 C 18,1 C 13,2 C 13,3 C 47 % 1011,6 hPa 0,0 l/m 6,1 km/h (2 Bft) NW 315 7,0 C 18,5 C 12,4 km/h (3 Bft)
25.04.2019 01:00 18,5 C 18,2 C 13,2 C 13,3 C 47 % 1011,6 hPa 0,0 l/m 5,8 km/h (2 Bft) SW 225 7,0 C 18,5 C 6,6 km/h (2 Bft)
25.04.2019 00:58 18,5 C 18,2 C 13,2 C 13,3 C 47 % 1011,6 hPa 0,0 l/m 5,8 km/h (2 Bft) SW 225 7,0 C 18,5 C 7,5 km/h (2 Bft)
25.04.2019 00:56 18,5 C 18,4 C 13,2 C 13,3 C 47 % 1011,6 hPa 0,0 l/m 5,8 km/h (2 Bft) SO 135 7,0 C 18,5 C 10,4 km/h (2 Bft)
25.04.2019 00:54 18,5 C 18,1 C 13,2 C 13,3 C 47 % 1011,6 hPa 0,0 l/m 5,6 km/h (1 Bft) S-SO 157 7,0 C 18,5 C 10,4 km/h (2 Bft)
25.04.2019 00:52 18,5 C 18,0 C 13,2 C 13,3 C 47 % 1011,6 hPa 0,0 l/m 6,0 km/h (2 Bft) S 180 7,0 C 18,5 C 3,9 km/h (1 Bft)
25.04.2019 00:50 18,5 C 18,2 C 13,2 C 13,3 C 47 % 1011,6 hPa 0,0 l/m 6,4 km/h (2 Bft) SO 135 7,0 C 18,5 C 7,3 km/h (2 Bft)
25.04.2019 00:48 18,6 C 18,2 C 13,2 C 13,3 C 47 % 1011,6 hPa 0,0 l/m 6,1 km/h (2 Bft) SO 135 7,1 C 18,6 C 16,0 km/h (3 Bft)
25.04.2019 00:46 18,6 C 18,2 C 13,2 C 13,3 C 47 % 1011,4 hPa 0,0 l/m 6,1 km/h (2 Bft) NW 315 7,1 C 18,6 C 8,7 km/h (2 Bft)
25.04.2019 00:44 18,6 C 18,3 C 13,2 C 13,3 C 47 % 1011,4 hPa 0,0 l/m 6,6 km/h (2 Bft) SW 225 7,1 C 18,5 C 13,5 km/h (3 Bft)
25.04.2019 00:42 18,6 C 18,3 C 13,2 C 13,3 C 47 % 1011,4 hPa 0,0 l/m 6,1 km/h (2 Bft) SW 225 7,1 C 18,6 C 14,1 km/h (3 Bft)
25.04.2019 00:40 18,6 C 18,2 C 13,2 C 13,3 C 47 % 1011,4 hPa 0,0 l/m 6,3 km/h (2 Bft) S 180 7,1 C 18,6 C 6,2 km/h (2 Bft)
25.04.2019 00:38 18,6 C 18,4 C 13,2 C 13,3 C 47 % 1011,4 hPa 0,0 l/m 7,4 km/h (2 Bft) S-SO 157 7,1 C 18,1 C 7,0 km/h (2 Bft)
25.04.2019 00:36 18,6 C 18,3 C 13,2 C 13,3 C 47 % 1011,4 hPa 0,0 l/m 7,7 km/h (2 Bft) NW 315 7,1 C 18,0 C 4,8 km/h (1 Bft)
25.04.2019 00:34 18,6 C 18,2 C 13,2 C 13,3 C 47 % 1011,4 hPa 0,0 l/m 7,9 km/h (2 Bft) W-SW 247 7,1 C 17,9 C 15,8 km/h (3 Bft)
25.04.2019 00:32 18,6 C 18,3 C 13,2 C 13,3 C 47 % 1011,4 hPa 0,0 l/m 8,0 km/h (2 Bft) W-SW 247 7,1 C 17,9 C 9,5 km/h (2 Bft)
25.04.2019 00:30 18,6 C 18,4 C 13,3 C 13,3 C 47 % 1011,4 hPa 0,0 l/m 8,2 km/h (2 Bft) SW 225 7,1 C 17,8 C 8,7 km/h (2 Bft)
25.04.2019 00:28 18,6 C 18,4 C 13,3 C 13,3 C 47 % 1011,4 hPa 0,0 l/m 7,9 km/h (2 Bft) SW 225 7,1 C 17,9 C 21,2 km/h (4 Bft)
25.04.2019 00:26 18,6 C 18,5 C 13,3 C 13,3 C 47 % 1011,3 hPa 0,0 l/m 7,2 km/h (2 Bft) S-SW 202 7,1 C 18,2 C 11,2 km/h (2 Bft)
25.04.2019 00:24 18,6 C 18,4 C 13,3 C 13,3 C 47 % 1011,3 hPa 0,0 l/m 6,8 km/h (2 Bft) S 180 7,1 C 18,4 C 9,7 km/h (2 Bft)
25.04.2019 00:22 18,6 C 18,3 C 13,3 C 13,3 C 47 % 1011,3 hPa 0,0 l/m 6,9 km/h (2 Bft) W-SW 247 7,1 C 18,4 C 24,7 km/h (4 Bft)
25.04.2019 00:20 18,6 C 18,2 C 13,3 C 13,3 C 47 % 1011,3 hPa 0,0 l/m 6,8 km/h (2 Bft) W-SW 247 7,1 C 18,4 C 12,6 km/h (3 Bft)
25.04.2019 00:18 18,6 C 18,2 C 13,3 C 13,3 C 47 % 1011,3 hPa 0,0 l/m 6,8 km/h (2 Bft) SO 135 7,1 C 18,4 C 9,8 km/h (2 Bft)
25.04.2019 00:16 18,6 C 18,3 C 13,3 C 13,3 C 47 % 1011,3 hPa 0,0 l/m 7,7 km/h (2 Bft) SO 135 7,1 C 18,0 C 7,9 km/h (2 Bft)
25.04.2019 00:14 18,5 C 18,4 C 13,3 C 13,3 C 48 % 1011,3 hPa 0,0 l/m 8,2 km/h (2 Bft) SW 225 7,3 C 17,7 C 9,8 km/h (2 Bft)
25.04.2019 00:12 18,5 C 18,3 C 13,3 C 13,3 C 48 % 1011,3 hPa 0,0 l/m 7,2 km/h (2 Bft) W-SW 247 7,3 C 18,1 C 9,3 km/h (2 Bft)
25.04.2019 00:10 18,5 C 18,3 C 13,3 C 13,3 C 48 % 1011,3 hPa 0,0 l/m 7,2 km/h (2 Bft) W-SW 247 7,3 C 18,1 C 9,3 km/h (2 Bft)
25.04.2019 00:08 18,5 C 18,3 C 13,3 C 13,3 C 48 % 1011,3 hPa 0,0 l/m 7,2 km/h (2 Bft) W-SW 247 7,3 C 18,1 C 9,3 km/h (2 Bft)
25.04.2019 00:06 18,5 C 18,3 C 13,3 C 13,3 C 48 % 1011,0 hPa 0,0 l/m 7,2 km/h (2 Bft) W-SW 247 7,3 C 18,1 C 9,3 km/h (2 Bft)
25.04.2019 00:04 18,5 C 18,3 C 13,3 C 13,3 C 48 % 1011,0 hPa 0,0 l/m 7,2 km/h (2 Bft) W-SW 247 7,3 C 18,1 C 9,3 km/h (2 Bft)
25.04.2019 00:02 18,5 C 18,3 C 13,3 C 13,3 C 48 % 1011,0 hPa 0,0 l/m 7,2 km/h (2 Bft) W-SW 247 7,3 C 18,1 C 9,3 km/h (2 Bft)
25.04.2019 00:00 18,5 C 18,1 C 13,3 C 13,3 C 48 % 1011,0 hPa 0,0 l/m 7,1 km/h (2 Bft) S 180 7,3 C 18,2 C 9,3 km/h (2 Bft)
_ Min-Zeit 02:42 02:40 02:06 00:00 00:16 00:00 - 02:34 - - 02:42 02:42 02:00
Minimum _ 15,7 C 14,5 C 13,0 C 13,3 C 47 % 1011,0 hPa - 2,3 km/h (1 Bft) - - 6,1 C 15,7 C 0,0 km/h (0 Bft)
_ Max-Zeit 00:16 00:26 00:00 00:00 02:40 01:29 00:00 01:42 - - 00:00 00:40 00:22
Maximum _ 18,6 C 18,5 C 13,3 C 13,3 C 53 % 1011,9 hPa 0,0 l/m 8,7 km/h
S (2 Bft)
- - 7,3 C 18,6 C 24,7 km/h
W-SW (4 Bft)
Durchschnitt _ 18,0 C 17,6 C 13,2 C 13,3 C 48 % 1011,6 hPa #0,0 l/m 5,7 km/h (1 Bft) W-SW - 6,9 C 17,8 C 8,8 km/h (2 Bft)